軌道要素
Epoch 2010 May 4.0 TT = JDT 2455320.5
T 2010 Apr. 23.05833 TT MPC
q 0.7896257 (2000.0) P Q
n 0.04338202 Peri. 214.56793 +0.94939108 -0.19974349
a 8.0216348 Node 206.47731 +0.06846998 -0.62157564
e 0.9015630 Incl. 147.06448 -0.30654271 -0.75746041
P 22.7
From 29 observations 2010 June 14-July 15, mean residual 0".6.
|